EW4205 Weather Reports


Display with metric or nautical units.
time (UTC)temp
F
wind
direction
speed
MPH
gust
MPH
rain 1hr
in
rain 24hr
in
rain mn
in
humidity
%
barometer
mb
20240518234549 68 313 5.0 18.0 0.00 0.00 0.00 30 1010.0
20240518234050 68 14 4.0 15.0 0.00 0.00 0.00 30 1009.8
20240518233548 67 307 5.0 12.0 0.00 0.00 0.00 32 1009.9
20240518233048 67 30 3.0 12.0 0.00 0.00 0.00 31 1009.9
20240518232550 67 359 3.0 13.0 0.00 0.00 0.00 30 1010.0
20240518232047 66 335 6.0 13.0 0.00 0.00 0.00 32 1010.0
20240518231546 65 3 7.0 14.0 0.00 0.00 0.00 32 1010.0
20240518231046 66 22 5.0 12.0 0.00 0.00 0.00 32 1010.0
20240518230546 66 351 4.0 13.0 0.00 0.00 0.00 32 1010.0
20240518230049 66 10 6.0 13.0 0.00 0.00 0.00 31 1010.1
20240518225547 67 328 6.0 13.0 0.00 0.00 0.00 29 1010.1
20240518225045 68 321 7.0 13.0 0.00 0.00 0.00 30 1010.0
20240518224544 69 61 5.0 14.0 0.00 0.00 0.00 28 1010.0
20240518224044 70 5 7.0 14.0 0.00 0.00 0.00 29 1010.0
20240518223545 71 334 5.0 17.0 0.00 0.00 0.00 30 1010.0
20240518223047 71 327 6.0 17.0 0.00 0.00 0.00 29 1009.9
20240518222544 70 9 8.0 15.0 0.00 0.00 0.00 30 1010.0
20240518222044 69 334 6.0 9.0 0.00 0.00 0.00 30 1009.9
20240518221544 69 287 4.0 9.0 0.00 0.00 0.00 29 1009.9
20240518221046 69 263 3.0 13.0 0.00 0.00 0.00 27 1009.9
20240518220543 70 347 7.0 13.0 0.00 0.00 0.00 29 1010.0
20240518220043 69 332 4.0 9.0 0.00 0.00 0.00 31 1010.0
20240518215543 69 330 3.0 8.0 0.00 0.00 0.00 28 1010.1
20240518215042 69 350 3.0 8.0 0.00 0.00 0.00 27 1010.1
20240518214542 69 158 2.0 4.0 0.00 0.00 0.00 32 1010.1
20240518214042 68 151 2.0 8.0 0.00 0.00 0.00 31 1010.1
20240518213542 67 353 2.0 11.0 0.00 0.00 0.00 29 1010.2
20240518213044 67 280 6.0 14.0 0.00 0.00 0.00 29 1010.1
20240518212541 67 283 6.0 16.0 0.00 0.00 0.00 29 1010.1
20240518212041 69 334 7.0 16.0 0.00 0.00 0.00 29 1010.2
20240518211546 70 324 5.0 11.0 0.00 0.00 0.00 27 1010.2
20240518211042 70 347 2.0 9.0 0.00 0.00 0.00 28 1010.0
20240518210539 70 133 2.0 9.0 0.00 0.00 0.00 24 1010.1
20240518210040 70 159 2.0 9.0 0.00 0.00 0.00 27 1010.3
20240518205538 71 162 4.0 8.0 0.00 0.00 0.00 26 1010.3
20240518205040 71 329 2.0 7.0 0.00 0.00 0.00 28 1010.4
20240518204537 72 180 3.0 11.0 0.00 0.00 0.00 23 1010.3
20240518204038 72 228 5.0 11.0 0.00 0.00 0.00 25 1010.4
20240518203541 71 144 1.0 9.0 0.00 0.00 0.00 28 1010.3
20240518203036 70 180 2.0 10.0 0.00 0.00 0.00 26 1010.4
20240518202535 71 185 4.0 10.0 0.00 0.00 0.00 25 1010.5
20240518202038 71 214 5.0 9.0 0.00 0.00 0.00 23 1010.4
20240518201535 71 28 2.0 7.0 0.00 0.00 0.00 26 1010.5
20240518201035 70 280 1.0 11.0 0.00 0.00 0.00 24 1010.7
20240518200535 70 228 4.0 11.0 0.00 0.00 0.00 24 1010.8
20240518200036 71 170 3.0 9.0 0.00 0.00 0.00 25 1010.8
20240518195531 71 151 2.0 8.0 0.00 0.00 0.00 24 1010.8
20240518195030 70 274 2.0 9.0 0.00 0.00 0.00 29 1011.0
20240518194530 69 212 5.0 9.0 0.00 0.00 0.00 27 1011.0
20240518194033 69 57 1.0 9.0 0.00 0.00 0.00 26 1011.1
20240518193529 68 212 3.0 9.0 0.00 0.00 0.00 30 1011.2
20240518193029 69 79 2.0 8.0 0.00 0.00 0.00 24 1011.2
20240518192528 71 164 0.0 6.0 0.00 0.00 0.00 29 1011.2
20240518192027 71 130 2.0 7.0 0.00 0.00 0.00 28 1011.4
20240518191527 72 212 3.0 7.0 0.00 0.00 0.00 24 1011.4
20240518191027 72 222 1.0 7.0 0.00 0.00 0.00 28 1011.5
20240518190523 71 218 3.0 7.0 0.00 0.00 0.00 30 1011.6
20240518190035 71 293 1.0 6.0 0.00 0.00 0.00 30 1011.6
20240518185524 69 287 3.0 6.0 0.00 0.00 0.00 28 1011.7
20240518185019 68 221 2.0 8.0 0.00 0.00 0.00 30 1011.8
20240518184521 67 251 2.0 8.0 0.00 0.00 0.00 31 1011.8
20240518184016 66 181 3.0 6.0 0.00 0.00 0.00 31 1011.9
20240518183515 66 1 1.0 4.0 0.00 0.00 0.00 30 1011.9
20240518183020 66 21 1.0 11.0 0.00 0.00 0.00 29 1012.0
20240518182515 66 196 5.0 11.0 0.00 0.00 0.00 32 1012.1
20240518182013 66 147 2.0 6.0 0.00 0.00 0.00 27 1012.1
20240518181512 65 245 2.0 6.0 0.00 0.00 0.00 32 1012.2
20240518181012 65 183 2.0 5.0 0.00 0.00 0.00 33 1012.2
20240518180514 65 230 1.0 6.0 0.00 0.00 0.00 33 1012.2
20240518180011 65 137 2.0 4.0 0.00 0.00 0.00 34 1012.2
20240518175510 64 239 1.0 4.0 0.00 0.00 0.00 34 1012.3
20240518175009 65 146 1.0 5.0 0.00 0.00 0.00 33 1012.4
20240518174510 65 147 0.0 5.0 0.00 0.00 0.00 32 1012.5
20240518174008 65 230 3.0 7.0 0.00 0.00 0.00 33 1012.5
20240518173507 64 233 2.0 10.0 0.00 0.00 0.00 36 1012.5
20240518173006 63 244 3.0 6.0 0.00 0.00 0.00 37 1012.6
20240518172507 62 115 1.0 5.0 0.00 0.00 0.00 34 1012.6
20240518172005 63 354 1.0 7.0 0.00 0.00 0.00 32 1012.8
20240518171504 63 345 3.0 7.0 0.00 0.00 0.00 36 1012.8
20240518171002 62 242 2.0 6.0 0.00 0.00 0.00 36 1012.8
20240518170501 62 257 0.0 4.0 0.00 0.00 0.00 35 1012.8
20240518170104 61 243 1.0 6.0 0.00 0.00 0.00 38 1012.7
20240518165559 61 280 2.0 6.0 0.00 0.00 0.00 38 1012.8
20240518165058 61 298 1.0 8.0 0.00 0.00 0.00 39 1013.0
20240518164603 61 177 2.0 8.0 0.00 0.00 0.00 39 1013.0
20240518164058 61 349 3.0 7.0 0.00 0.00 0.00 39 1013.1
20240518163555 60 243 2.0 8.0 0.00 0.00 0.00 38 1013.2
20240518163058 60 221 3.0 8.0 0.00 0.00 0.00 37 1013.2
20240518162554 60 288 3.0 8.0 0.00 0.00 0.00 40 1013.3
20240518162053 60 214 1.0 9.0 0.00 0.00 0.00 40 1013.3
20240518161554 60 332 2.0 8.0 0.00 0.00 0.00 39 1013.4
20240518161055 60 262 4.0 8.0 0.00 0.00 0.00 41 1013.5
20240518160550 60 3 2.0 8.0 0.00 0.00 0.00 41 1013.6
20240518160048 60 299 4.0 10.0 0.00 0.00 0.00 44 1013.7
20240518155547 59 310 4.0 10.0 0.00 0.00 0.00 44 1013.8
20240518155045 58 336 2.0 11.0 0.00 0.00 0.00 46 1013.9
20240518154548 58 349 4.0 11.0 0.00 0.00 0.00 45 1013.9
20240518154045 58 323 4.0 9.0 0.00 0.00 0.00 45 1014.0
20240518153546 58 320 3.0 7.0 0.00 0.00 0.00 46 1014.0
20240518153043 58 336 2.0 7.0 0.00 0.00 0.00 48 1014.0
20240518152544 57 284 3.0 5.0 0.00 0.00 0.00 51 1014.1
20240518152040 56 299 2.0 4.0 0.00 0.00 0.00 52 1014.0
20240518151542 55 237 1.0 4.0 0.00 0.00 0.00 51 1014.0
20240518151037 54 269 1.0 4.0 0.00 0.00 0.00 55 1014.1
20240518150536 53 331 1.0 6.0 0.00 0.00 0.00 53 1014.2
20240518150036 53 335 1.0 8.0 0.00 0.00 0.00 54 1014.2
20240518145536 53 316 3.0 8.0 0.00 0.00 0.00 53 1014.4
20240518145034 53 266 3.0 12.0 0.00 0.00 0.00 54 1014.4
20240518144533 53 280 5.0 12.0 0.00 0.00 0.00 52 1014.4
20240518144032 53 291 6.0 13.0 0.00 0.00 0.00 52 1014.4
20240518143534 52 13 5.0 13.0 0.00 0.00 0.00 52 1014.3
20240518143036 52 301 4.0 10.0 0.00 0.00 0.00 52 1014.2
20240518142530 52 294 5.0 10.0 0.00 0.00 0.00 52 1014.4
20240518142029 52 271 3.0 11.0 0.00 0.00 0.00 53 1014.3
20240518141537 52 3 5.0 12.0 0.00 0.00 0.00 53 1014.3
20240518141029 52 327 5.0 14.0 0.00 0.00 0.00 53 1014.3
20240518140528 51 6 5.0 14.0 0.00 0.00 0.00 53 1014.3
20240518140028 51 328 3.0 8.0 0.00 0.00 0.00 55 1014.4
20240518135526 51 343 3.0 8.0 0.00 0.00 0.00 56 1014.3
20240518135031 50 3 3.0 10.0 0.00 0.00 0.00 57 1014.4
20240518134527 50 346 3.0 11.0 0.00 0.00 0.00 57 1014.4
20240518134026 50 344 5.0 11.0 0.00 0.00 0.00 57 1014.5
20240518133526 50 284 1.0 6.0 0.00 0.00 0.00 58 1014.5
20240518133025 50 324 2.0 8.0 0.00 0.00 0.00 57 1014.4
20240518132525 50 351 2.0 9.0 0.00 0.00 0.00 57 1014.5
20240518132024 50 335 3.0 8.0 0.00 0.00 0.00 57 1014.5
20240518131523 50 324 3.0 5.0 0.00 0.00 0.00 57 1014.6
20240518131023 50 334 1.0 8.0 0.00 0.00 0.00 57 1014.6
20240518130523 50 286 2.0 8.0 0.00 0.00 0.00 56 1014.7
20240518130023 49 255 2.0 7.0 0.00 0.00 0.00 56 1014.7
20240518125521 49 309 3.0 7.0 0.00 0.00 0.00 56 1014.7
20240518125022 50 316 3.0 7.0 0.00 0.00 0.00 56 1014.7
20240518124526 49 336 3.0 8.0 0.00 0.00 0.00 57 1014.7
20240518124022 50 300 2.0 5.0 0.00 0.00 0.00 56 1014.8
20240518123527 50 324 2.0 8.0 0.00 0.00 0.00 56 1014.8
20240518123021 50 316 2.0 8.0 0.00 0.00 0.00 56 1014.8
20240518122520 50 332 2.0 9.0 0.00 0.00 0.00 56 1014.8
20240518122020 50 332 5.0 10.0 0.00 0.00 0.00 56 1014.7
20240518121520 50 338 5.0 10.0 0.00 0.00 0.00 56 1014.7
20240518121021 50 348 2.0 12.0 0.00 0.00 0.00 57 1014.7
20240518120519 50 330 4.0 12.0 0.00 0.00 0.00 57 1014.6
20240518120019 50 330 4.0 9.0 0.00 0.00 0.00 57 1014.7
20240518115518 50 309 4.0 9.0 0.00 0.00 0.00 57 1014.7
20240518115020 50 313 2.0 8.0 0.00 0.00 0.00 57 1014.6
20240518114518 50 282 4.0 10.0 0.00 0.00 0.00 57 1014.7
20240518114017 50 278 3.0 10.0 0.00 0.00 0.00 57 1014.6
20240518113516 49 271 5.0 10.0 0.00 0.00 0.00 58 1014.7
20240518113017 49 337 3.0 9.0 0.00 0.00 0.00 58 1014.7
20240518112515 49 326 3.0 9.0 0.00 0.00 0.00 58 1014.6
20240518112015 49 338 4.0 9.0 0.00 0.00 0.00 58 1014.7
20240518111514 48 332 4.0 9.0 0.00 0.00 0.00 59 1014.7
20240518111013 48 355 6.0 10.0 0.00 0.00 0.00 59 1014.8
20240518110512 48 1 4.0 8.0 0.00 0.00 0.00 59 1014.8
20240518110012 48 336 3.0 8.0 0.00 0.00 0.00 59 1014.8
20240518105511 48 342 4.0 8.0 0.00 0.00 0.00 59 1014.8
20240518105010 48 338 3.0 9.0 0.00 0.00 0.00 59 1014.8
20240518104511 48 335 3.0 9.0 0.00 0.00 0.00 59 1014.8
20240518104010 48 328 5.0 9.0 0.00 0.00 0.00 59 1014.8
20240518103509 48 343 4.0 8.0 0.00 0.00 0.00 59 1014.8
20240518103009 48 321 4.0 7.0 0.00 0.00 0.00 59 1014.8
20240518102508 48 309 3.0 8.0 0.00 0.00 0.00 59 1014.9
20240518102008 48 299 3.0 8.0 0.00 0.00 0.00 58 1014.9
20240518101511 48 344 3.0 8.0 0.00 0.00 0.00 58 1014.9
20240518101006 48 335 3.0 8.0 0.00 0.00 0.00 58 1014.9
20240518100506 49 359 4.0 8.0 0.00 0.00 0.00 57 1014.8
20240518100016 49 326 3.0 5.0 0.00 0.00 0.00 57 1014.9
20240518095503 49 292 1.0 8.0 0.00 0.00 0.00 56 1014.9
20240518095005 49 322 3.0 8.0 0.00 0.00 0.00 56 1014.8
20240518094502 49 315 4.0 8.0 0.00 0.00 0.00 56 1014.8
20240518094101 49 328 5.0 11.0 0.00 0.00 0.00 56 1014.9
20240518094000 49 341 4.0 11.0 0.00 0.00 0.00 55 1014.9
20240518093600 49 293 4.0 11.0 0.00 0.00 0.00 56 1015.0
20240518093114 49 313 5.0 8.0 0.00 0.00 0.00 56 1015.0
20240518092559 50 339 4.0 11.0 0.00 0.00 0.00 55 1015.0
20240518092058 50 339 5.0 11.0 0.00 0.00 0.00 55 1015.0
20240518091559 50 24 5.0 11.0 0.00 0.00 0.00 55 1015.0
20240518091058 50 316 5.0 10.0 0.00 0.00 0.00 55 1014.9
20240518090557 50 320 5.0 10.0 0.00 0.00 0.00 55 1014.9
20240518090057 50 307 4.0 10.0 0.00 0.00 0.00 55 1014.9
20240518085558 50 338 5.0 9.0 0.00 0.00 0.00 55 1014.9
20240518085054 50 326 4.0 10.0 0.00 0.00 0.00 55 1014.9
20240518084554 50 13 4.0 10.0 0.00 0.00 0.00 55 1014.9
20240518084052 50 346 4.0 9.0 0.00 0.00 0.00 54 1014.8
20240518083551 50 313 3.0 9.0 0.00 0.00 0.00 54 1014.9
20240518083052 51 355 3.0 11.0 0.00 0.00 0.00 54 1014.9
20240518082551 51 351 5.0 13.0 0.00 0.00 0.00 53 1014.9
20240518082049 51 346 7.0 14.0 0.00 0.00 0.00 53 1014.9
20240518081549 51 332 8.0 14.0 0.00 0.00 0.00 54 1014.9
20240518081049 51 330 7.0 14.0 0.00 0.00 0.00 54 1014.9
20240518080548 51 317 5.0 11.0 0.00 0.00 0.00 54 1014.9
20240518080051 51 337 4.0 10.0 0.00 0.00 0.00 54 1014.9
20240518075547 51 14 4.0 9.0 0.00 0.00 0.00 54 1014.9
20240518075046 51 11 4.0 10.0 0.00 0.00 0.00 54 1014.9
20240518074545 51 358 3.0 11.0 0.00 0.00 0.00 54 1014.9
20240518074044 51 344 6.0 11.0 0.00 0.00 0.00 54 1014.9
20240518073544 51 350 6.0 11.0 0.00 0.00 0.00 53 1014.9
20240518073045 51 333 4.0 10.0 0.00 0.00 0.00 53 1014.9
20240518072542 51 347 5.0 9.0 0.00 0.00 0.00 53 1015.0
20240518072041 51 334 5.0 10.0 0.00 0.00 0.00 53 1015.0
20240518071540 51 335 4.0 10.0 0.00 0.00 0.00 52 1015.1
20240518071040 51 20 4.0 9.0 0.00 0.00 0.00 52 1015.0
20240518070539 52 359 5.0 9.0 0.00 0.00 0.00 52 1015.0
20240518070051 52 347 4.0 11.0 0.00 0.00 0.00 52 1014.9
20240518065540 52 349 5.0 14.0 0.00 0.00 0.00 52 1014.9
20240518065036 52 315 7.0 14.0 0.00 0.00 0.00 52 1014.8
20240518064557 51 3 5.0 13.0 0.00 0.00 0.00 53 1014.8
20240518064036 51 319 6.0 12.0 0.00 0.00 0.00 53 1014.9
20240518063539 51 328 4.0 9.0 0.00 0.00 0.00 53 1015.0
20240518063052 51 343 3.0 8.0 0.00 0.00 0.00 53 1015.1
20240518062536 51 336 4.0 8.0 0.00 0.00 0.00 53 1015.1
20240518062036 51 326 4.0 8.0 0.00 0.00 0.00 53 1015.1
20240518061536 51 301 2.0 6.0 0.00 0.00 0.00 52 1015.0
20240518061035 52 299 1.0 3.0 0.00 0.00 0.00 52 1015.1
20240518060534 52 220 0.0 2.0 0.00 0.00 0.00 51 1015.0
20240518060034 52 222 0.0 3.0 0.00 0.00 0.00 51 1014.9
20240518055536 53 345 0.0 3.0 0.00 0.00 0.00 51 1014.9
20240518055034 53 344 0.0 4.0 0.00 0.00 0.00 49 1014.8
20240518054536 53 299 0.0 4.0 0.00 0.00 0.00 48 1014.9
20240518054034 53 271 1.0 5.0 0.00 0.00 0.00 47 1014.9
20240518053533 54 251 1.0 5.0 0.00 0.00 0.00 47 1014.9
20240518053033 54 252 2.0 5.0 0.00 0.00 0.00 47 1015.0
20240518052535 54 228 0.0 3.0 0.00 0.00 0.00 45 1014.9
20240518052033 54 277 0.0 5.0 0.00 0.00 0.00 45 1015.0
20240518051535 55 340 1.0 10.0 0.00 0.00 0.00 45 1014.9
20240518051035 55 19 3.0 10.0 0.00 0.00 0.00 45 1015.0
20240518050533 55 335 3.0 8.0 0.00 0.00 0.00 44 1014.9
20240518050032 55 343 4.0 10.0 0.00 0.00 0.00 44 1015.0
20240518045532 56 347 4.0 11.0 0.00 0.00 0.00 44 1015.1
20240518045032 56 308 5.0 14.0 0.00 0.00 0.00 44 1014.9
20240518044534 56 344 7.0 12.0 0.00 0.00 0.00 42 1015.0
20240518044031 56 330 3.0 10.0 0.00 0.00 0.00 43 1015.0
20240518043531 56 337 4.0 13.0 0.00 0.00 0.00 42 1015.0
20240518043032 56 339 6.0 13.0 0.00 0.00 0.00 42 1015.0
20240518042531 56 358 7.0 15.0 0.00 0.00 0.00 41 1015.0
20240518042031 56 333 7.0 15.0 0.00 0.00 0.00 41 1014.9
20240518041530 57 322 5.0 16.0 0.00 0.00 0.00 41 1014.9
20240518041030 57 328 7.0 19.0 0.00 0.00 0.00 40 1015.0
20240518040531 57 312 6.0 17.0 0.00 0.00 0.00 40 1015.0
20240518040030 57 329 8.0 17.0 0.00 0.00 0.00 39 1015.0
20240518035530 57 325 8.0 19.0 0.00 0.00 0.00 39 1015.0
20240518035031 57 319 8.0 19.0 0.00 0.00 0.00 38 1014.9
20240518034528 57 321 6.0 16.0 0.00 0.00 0.00 39 1014.9
20240518034029 57 314 8.0 17.0 0.00 0.00 0.00 38 1014.9
20240518033528 57 332 7.0 17.0 0.00 0.00 0.00 38 1014.9
20240518033027 58 324 6.0 12.0 0.00 0.00 0.00 38 1014.8
20240518032527 58 345 6.0 18.0 0.00 0.00 0.00 39 1014.8
20240518032027 58 338 8.0 18.0 0.00 0.00 0.00 38 1014.8
20240518031527 58 328 4.0 17.0 0.00 0.00 0.00 38 1014.8
20240518031027 58 336 7.0 17.0 0.00 0.00 0.00 37 1014.7
20240518030526 58 352 7.0 14.0 0.00 0.00 0.00 37 1014.8
20240518030026 58 345 6.0 16.0 0.00 0.00 0.00 37 1014.8
20240518025525 58 351 7.0 16.0 0.00 0.00 0.00 37 1014.7
20240518025029 59 1 8.0 19.0 0.00 0.00 0.00 37 1014.6
20240518024535 59 331 9.0 15.0 0.00 0.00 0.00 37 1014.7
20240518024028 59 4 7.0 15.0 0.00 0.00 0.00 37 1014.7
20240518023525 59 323 8.0 16.0 0.00 0.00 0.00 36 1014.8
20240518023024 60 352 6.0 18.0 0.00 0.00 0.00 36 1014.7
20240518022523 60 335 8.0 18.0 0.00 0.00 0.00 36 1014.6
20240518022023 60 8 8.0 15.0 0.00 0.00 0.00 35 1014.7
20240518021522 61 320 8.0 16.0 0.00 0.00 0.00 35 1014.6
20240518021022 61 347 9.0 16.0 0.00 0.00 0.00 35 1014.5
20240518020521 61 282 5.0 15.0 0.00 0.00 0.00 36 1014.4
20240518020026 62 345 7.0 19.0 0.00 0.00 0.00 35 1014.4
20240518015520 62 331 8.0 19.0 0.00 0.00 0.00 36 1014.4
20240518015023 62 322 4.0 13.0 0.00 0.00 0.00 37 1014.4
20240518014519 62 295 5.0 12.0 0.00 0.00 0.00 36 1014.4
20240518014019 63 284 5.0 13.0 0.00 0.00 0.00 35 1014.3
20240518013519 63 303 4.0 15.0 0.00 0.00 0.00 36 1014.3
20240518013026 63 335 5.0 15.0 0.00 0.00 0.00 34 1014.3
20240518012518 64 341 5.0 11.0 0.00 0.00 0.00 35 1014.2
20240518012018 64 322 3.0 10.0 0.00 0.00 0.00 34 1014.2
20240518011526 64 313 5.0 10.0 0.00 0.00 0.00 34 1014.2
20240518011022 65 313 4.0 12.0 0.00 0.00 0.00 33 1014.2
20240518010518 66 267 3.0 12.0 0.00 0.00 0.00 35 1014.1
20240518010018 67 324 3.0 13.0 0.00 0.00 0.00 33 1014.2
20240518005618 67 336 4.0 13.0 0.00 0.00 0.00 32 1014.1
20240518005017 67 305 3.0 8.0 0.00 0.00 0.00 31 1014.0
20240518004517 67 325 2.0 11.0 0.00 0.00 0.00 32 1014.0
20240518004017 67 289 4.0 11.0 0.00 0.00 0.00 29 1014.0
20240518003515 68 280 2.0 8.0 0.00 0.00 0.00 29 1014.0
20240518003015 68 316 4.0 9.0 0.00 0.00 0.00 29 1013.9
20240518002515 68 249 2.0 7.0 0.00 0.00 0.00 30 1013.9
20240518002014 68 343 3.0 8.0 0.00 0.00 0.00 28 1013.9
20240518001514 68 245 2.0 12.0 0.00 0.00 0.00 28 1013.8
20240518001014 68 293 4.0 12.0 0.00 0.00 0.00 28 1013.7
20240518000518 69 212 3.0 8.0 0.00 0.00 0.00 28 1013.7
20240518000014 69 353 4.0 8.0 0.00 0.00 0.00 29 1013.7
20240517235514 69 295 5.0 10.0 0.00 0.00 0.00 28 1013.7
20240517235012 69 229 3.0 8.0 0.00 0.00 0.00 27 1013.8